Other Public Products
Issued by NWS Grand Forks, ND

Home | Current Version | Previous Version | Graphics & Text | Print | Product List | Glossary On
Versions: 1 2 3 4 5 6 7 8 9 10 11 12 13 14 15 16 17 18 19 20 21 22 23 24 25 26 27 28 29 30 31 32 33 34 35 36 37 38 39 40 41 42 43 44 45 46 47 48 49 50
000
FPUS83 KFGF 290231
OPUFGF
PRAIRIE TO PINES WEATHER ROUNDUP
NATIONAL WEATHER SERVICE EASTERN NORTH DAKOTA/GRAND FORKS ND
900 PM CDT SAT MAR 28 2015

 **SATELLITE DATA USED TO AUGMENT SKY COVER AT AUTOMATED STATIONS**
 *****  WEATHER ACROSS EASTERN NORTH DAKOTA  *****

CITY           SKY/WX    TMP DP  RH WIND       PRES   REMARKS
GRAND FORKS    MOCLDY    47  31  53 S24G35    29.60F
GRAND FORKS AF PTCLDY    47  31  54 S24G33    29.57F
GRAND CITY NWS   N/A     43 N/A N/A S33         N/A
BUXTON           N/A     46  29  52 SE24        N/A
DEVILS LAKE    CLOUDY    48  36  61 S17       29.55R
FARGO          LGT RAIN  46  30  53 SE24G38   29.69F
WAHPETON ARPT  PTCLDY    41  30  65 SE21G26   29.74F
$$

 *****  WEATHER ACROSS CENTRAL AND WESTERN NORTH DAKOTA  *****

CITY           SKY/WX    TMP DP  RH WIND       PRES   REMARKS
JAMESTOWN      MOCLDY    48  33  56 S21G30    29.55F
BISMARCK       LGT RAIN  58  50  75 NW8       29.60F
MINOT          CLOUDY    58  47  66 W13       29.47R
MINOT AFB      CLOUDY    51  51  99 W12       29.45R
GARRISON         N/A     55  49  80 W12       29.51R
WILLISTON      CLOUDY    53  44  71 W20       29.59R
DICKINSON      CLOUDY    49  42  77 W25G36    29.64R
HETTINGER      CLOUDY    52  44  74 NW26G40   29.67R
$$

 *****  OTHER OBSERVATIONS NORTHEAST NORTH DAKOTA  *****

CITY           SKY/WX    TMP DP  RH WIND       PRES   REMARKS
WALHALLA       MIX PCPN  45  37  76 S15G24    29.54S
LANGDON        NOT AVBL
CAVALIER       FAIR      43  34  70 S17G23    29.57R
GRAFTON        NOT AVBL
CANDO          CLOUDY    46  36  66 S16G26    29.53R
FORT TOTTEN      N/A     49  35  58 S18       29.95
ROLLA          LGT RAIN  43  41  93 SE7       29.50F
RUGBY            N/A     48  39  71 S13G21    29.45F
 ***** THE ABOVE OBSERVATIONS ARE NON NWS ARE NOT QUALITY
        CONTROLLED AND MAY MIS-REPORT RAIN FOR SNOW...
$$

 *****  OTHER OBSERVATIONS SOUTHEAST NORTH DAKOTA *****

CITY           SKY/WX    TMP DP  RH WIND       PRES   REMARKS
COOPERSTOWN    NOT AVBL
VALLEY CITY    FAIR      46  32  57 S21G29    29.59F
OAKES            N/A     45  32  61 SE15      29.63F
GWINNER        CLEAR     45  32  61 S16         N/A
SHEYENNE NWR     N/A     46  31  55 S15       29.95
BUFFALO        NOT AVBL
WYNDMERE         N/A     46  30  53 SE15        N/A
 ***** THE ABOVE OBSERVATIONS ARE NON NWS ARE NOT QUALITY
       CONTROLLED AND MAY MIS-REPORT RAIN FOR SNOW...
$$

  *****  WEATHER ACROSS NORTHERN MINNESOTA  *****

CITY           SKY/WX    TMP DP  RH WIND       PRES   REMARKS
FLAG ISLAND    CLOUDY    36  28  75 S23       29.64F
WARROAD        CLOUDY    39  28  65 S16G26    29.66F
ROSEAU         MOCLDY    41  30  65 S25G32    29.63F
HALLOCK        CLOUDY    41  30  65 S22       29.58F
THF RVR FALLS  PTCLDY    39  28  65 S23G29    29.66F
HALSTAD          N/A     43  27  52 S30         N/A
FOSSTON        PTCLDY    37  27  65 S22G30    29.71F
BAUDETTE       CLOUDY    40  24  53 S15G23    29.71F
WASKISH        CLOUDY    39  27  60 S12G23    29.75F
CROOKSTON      PTCLDY    43  30  61 S24G33    29.64F
$$
  *****  WEATHER ACROSS CENTRAL AND WEST MINNESOTA  *****

CITY           SKY/WX    TMP DP  RH WIND       PRES   REMARKS
BEMIDJI        MOCLDY    37  26  66 S14G23    29.76F
PARK RAPIDS    PTCLDY    40  26  57 S20       29.81F
WADENA         PTCLDY    37  27  65 S17       29.81F
DETROIT LAKES  MOCLDY    39  30  70 S20G29    29.76F
MOORHEAD       FAIR      43  32  65 SE25G31   29.71F
FERGUS FALLS   CLEAR     39  27  60 S23       29.80F
ELBOW LAKE     FAIR      39  30  71 SE22G30   29.79F
MORRIS MN      CLEAR     39  30  70 SE18      29.81F
STAPLES        CLOUDY    37  25  60 S14       29.86F
WHEATON        CLEAR     39  28  65 SE16      29.78F
$$
  *****  WEATHER ELSEWHERE ACROSS MINNESOTA  *****

CITY           SKY/WX    TMP DP  RH WIND       PRES   REMARKS
DULUTH         PTCLDY    36  15  42 S17       29.94F
INTRNTL FALLS  CLOUDY    40  19  43 S12G23    29.77F
ELY            CLEAR     36  12  38 S9        29.87F
CLOQUET        PTCLDY    36  12  38 S9G16     29.93F
BRAINERD       MOCLDY    36  22  56 S13       29.90F
HIBBING        PTCLDY    36  16  44 S6        29.89S
ALEXANDRIA     PTCLDY    38  27  64 S20       29.85F
SAINT CLOUD    MOCLDY    36  24  62 SE18      29.94F
MINNEAPOLIS    PTCLDY    35  21  56 SE13      30.04F
$$

  *****  WEATHER ACROSS SOUTH DAKOTA  *****

CITY           SKY/WX    TMP DP  RH WIND       PRES   REMARKS
SIOUX FALLS    CLEAR     47  28  47 S20G25    29.87F
BROOKINGS      NOT AVBL
WATERTOWN      CLEAR     44  28  53 S18       29.76F
HURON          CLEAR     50  32  50 S24G35    29.71F
SISSETON         N/A     44  31  60 S18       29.72F
ABERDEEN       PTCLDY    50  31  48 S24G33    29.64F
MITCHELL       CLEAR     50  33  52 SE24      29.76F
PIERRE         MOCLDY    58  35  42 SE22      29.53F
MOBRIDGE       CLOUDY    55  35  47 SE21      29.49F
RAPID CITY     MOCLDY    65  40  39 NW48G58   29.67R
$$

  *****  SOME WEATHER IN NEARBY STATES *****

CITY           SKY/WX    TMP DP  RH WIND       PRES   REMARKS
GLASGOW MT     LGT RAIN  47  40  76 W26G35    29.72R
GREAT FALLS MT CLOUDY    49  26  41 W18G26    30.05R
CHEYENNE WY    PTCLDY    61  27  27 W30G38    29.93F
SCOTTSBLUFF NE MOCLDY    74  24  15 W17G25    29.76R
OMAHA NE       CLEAR     47  32  56 SE20      30.01F
DES MOINES IA  CLEAR     42  21  43 S9        30.12S
DAVENPORT IA   CLEAR     31  13  47 S9        30.24S WCI  23
CHICAGO IL     CLEAR     27  10  49 SE9       30.28R WCI  18
EAU CLAIRE WI  CLEAR     34  12  40 S10       30.11S
LA CROSSE WI   CLEAR     35  16  45 SE9       30.15S
$$

  *****  SOME NATIONAL WEATHER *****

CITY           SKY/WX    TMP DP  RH WIND       PRES   REMARKS
LA GUARDIA NY  CLOUDY    31  19  61 NW15      30.07R WCI  20
RALEIGH NC     FAIR      36  10  34 N5        30.22R
ATLANTA GA     PTCLDY    43  16  33 NW8       30.21R
NEW ORLEANS LA CLEAR     59  46  62 SE7       30.21R
OKLAHOMA CITY  CLEAR     63  45  51 SE10      29.99R
ALBUQUERQUE NM CLEAR     73  10   9 W10       30.08S
SALT LAKE CITY PTCLDY    64  36  35 NW12      30.14R
LOS ANGELES CA PTCLDY    62  58  86 W9        30.02R
BOISE ID       CLEAR     56  26  31 N12       30.27S
SEATTLE WA     CLOUDY    55  43  63 SW7       30.34S
$$

*** WEATHER ACROSS MANITOBA...SASKATCHEWAN AND ONTARIO ***
                ***ONTARIO***

CITY           SKY/WX    TMP DP  RH WIND       PRES   REMARKS
GERALDTON      PTCLDY    27  14  59 S14G28    29.89F WCI  15
THUNDER BAY    PTCLDY    30  18  59 SW9       29.97F WCI  22
SIOUX LOOKOUT  MOCLDY    36  12  38 S10       29.71F
TORONTO        CLEAR     23   5  46 NW9       30.24R WCI  13
BIG TROUT LK   MIX PCPN  34  28  80 SW17G24   29.57R WCI  23
PICKLE LAKE    CLOUDY    36  12  38 S14G21    29.66F
DRYDEN         CLOUDY    37  18  44 S14G21    29.68F
KENORA         CLOUDY    39  25  56 S18G30    29.64F
$$
                *** MANITOBA***

CITY           SKY/WX    TMP DP  RH WIND       PRES   REMARKS
BRANDON        MOCLDY    41  37  87 SE6       29.42F
DAUPHIN        LGT RAIN  39  34  81 NW6       29.46R
ISLAND LAKE    LGT SNOW  32  32 100 VRB2      29.50F
PILOT MOUND      N/A     43  37  81 S20         N/A
THE PAS        CLOUDY    36  32  87 NW9       29.55R
THOMPSON       SNOWSHWR  32  30  93 W3        29.50R
WINNIPEG       MOCLDY    43  32  65 S25G35    29.54F
LYNN LAKE      CLEAR     37  27  65 NW9       29.52R
CHURCHILL      CLOUDY    30  27  86 NW14      29.43R WCI  20
GILLAM         CLOUDY    32  30  93 W7        29.47R
$$
                ***SASKATCHEWAN***

CITY           SKY/WX    TMP DP  RH WIND       PRES   REMARKS
ESTEVAN        LGT RAIN  48  46  93 NW10      29.52R
KINDERSLEY     MOCLDY    39  37  93 NW10      29.84
LLOYDMINSTER   PTCLDY    39  34  81 W10       29.82R
PRINCE ALBERT  MOCLDY    37  34  87 NW6       29.69R
REGINA         CLOUDY    39  37  93 N21G28    29.61



USA.gov is the U.S. government's official web portal to all federal, state and local government web resources and services.